This is the latest recevied weather packets stored in our database for station/object KH2PM. If no packets are shown the sender has not sent any weather packets the latest 10 day(s).
| Time | Temp. | Humidity | Pressure | Rain* | Wind** | Luminosity | Snow |
|---|---|---|---|---|---|---|---|
| 1777748704 | 13.33° C | 86% | 1013.1 hPa | 0 mm | - | - | - |
| 1777748406 | 13.33° C | 86% | 1013 hPa | 0 mm | - | - | - |
| 1777744804 | 12.22° C | 92% | 1013.7 hPa | 0.25 mm | - | - | - |
| 1777744504 | 12.22° C | 90% | 1013.7 hPa | 0.25 mm | - | - | - |
| 1777742704 | 12.22° C | 91% | 1013.4 hPa | 0.76 mm | - | - | - |
| 1777741803 | 12.22° C | 90% | 1013.2 hPa | 0.51 mm | - | - | - |
| 1777739104 | 11.67° C | 91% | 1014.2 hPa | 0.51 mm | - | - | - |
| 1777738804 | 12.22° C | 91% | 1014.4 hPa | 0.51 mm | - | - | - |
| 1777737605 | 11.67° C | 91% | 1014.4 hPa | 0.51 mm | - | - | - |
| 1777732804 | 12.22° C | 92% | 1014.5 hPa | 0.76 mm | - | - | - |
| 1777731306 | 12.22° C | 93% | 1014.5 hPa | 0.76 mm | - | - | - |
| 1777726204 | 11.67° C | 93% | 1013.5 hPa | 1.02 mm | - | - | - |
| 1777724106 | 11.67° C | 93% | 1012.9 hPa | 1.02 mm | - | - | - |
| 1777722307 | 11.67° C | 92% | 1013 hPa | 0.76 mm | - | - | - |
| 1777718104 | 11.67° C | 94% | 1013.2 hPa | 0.25 mm | - | - | - |
| 1777715704 | 11.67° C | 94% | 1013.4 hPa | 0 mm | - | - | - |
| 1777715404 | 11.67° C | 94% | 1013.4 hPa | 0 mm | - | - | - |
| 1777714204 | 11.67° C | 94% | 1013.4 hPa | 0 mm | - | - | - |
| 1777712405 | 11.67° C | 94% | 1013.3 hPa | 0 mm | - | - | - |
| 1777711804 | 11.67° C | 94% | 1013.2 hPa | 0 mm | - | - | - |
| 1777709404 | 11.67° C | 94% | 1012.9 hPa | 0 mm | - | - | - |
| 1777709104 | 11.67° C | 95% | 1012.8 hPa | 0 mm | - | - | - |
| 1777708504 | 11.67° C | 94% | 1012.7 hPa | 0 mm | - | - | - |
| 1777706404 | 11.67° C | 94% | 1012.2 hPa | 0 mm | - | - | - |
| 1777705805 | 11.67° C | 94% | 1012.3 hPa | 0 mm | - | - | - |
* Rain latest hour (hover to see other rain measurements)
** Current wind speed in m/s (hover to see current wind gust speed)